Regional Weather Roundup
Issued by NWS Charleston, SC

Current Version | Previous Version | Graphics & Text | Print | Product List | Glossary On
Versions: 1 2 3 4 5 6 7 8 9 10 11 12 13 14 15 16 17 18 19 20 21 22 23 24 25 26 27 28 29 30 31 32 33 34 35 36 37 38 39 40 41 42 43 44 45 46 47 48 49 50
000
ASUS42 KCHS 190827
RWRCHS

REGIONAL WEATHER ROUNDUP
NATIONAL WEATHER SERVICE CHARLESTON SC
300 AM EST SUN NOV 19 2017

NOTE: "FAIR" INDICATES FEW OR NO CLOUDS BELOW 12,000 FEET WITH NO
SIGNIFICANT WEATHER AND/OR OBSTRUCTIONS TO VISIBILITY.

NOT ALL STATIONS ARE QUALITY CONTROLLED. USE DATA WITH CAUTION...
ESPECIALLY DEWPOINT OBSERVATIONS.

SCZ027-030-031-034>040-042>050-190900-
...SOUTHEAST SOUTH CAROLINA...

CITY           SKY/WX    TMP DP  RH WIND       PRES   REMARKS
N CHARLESTON   CLEAR     64  57  78 SW20G26   29.72F
WATERFRONT PRK NOT AVBL
JOHNS ISLAND   FAIR      66  59  77 SW14G22   29.74F
PINOPOLIS        N/A     64  57  77 S9G20     29.62F
MONCKS CORNER  FAIR      64  55  72 SW13G18   29.72S
SUMMERVILLE    FAIR      63  55  77 S8        29.73R
BEAUFORT MCAS  NOT AVBL
BEAUFORT ARPT  FAIR      63  57  82 SW9G18    29.75F
HILTON HEAD IS CLEAR     64  59  82 SW13G24   29.78S
WALTERBORO     CLOUDY    63  59  88 SW13      29.74R
ALLENDALE      CLOUDY    64  61  88 VRB7G13   29.75R

...SOUTHERN MIDLANDS AND PEE DEE...

CITY           SKY/WX    TMP DP  RH WIND       PRES   REMARKS
GEORGETOWN     FAIR      64  57  77 SW16G26   29.72F
KINGSTREE      CLOUDY    64  55  72 S12G20    29.69R
ORANGEBURG     LGT RAIN  64  57  78 W14       29.71R
BARNWELL         N/A     63  63 100 SW8       29.73S
AIKEN          DRIZZLE   59  55  88 SW15G22   29.74S
MANNING        CLOUDY    64  59  82 MISG      29.71R
COLUMBIA       CLOUDY    67  59  75 W13       29.67R
SUMTER         DRIZZLE   64  55  72 SW14      29.65R
FLORENCE       CLOUDY    66  57  72 SW15G25   29.66R
MYRTLE BEACH   CLEAR     66  58  75 SW16G24   29.70F
N MYRTLE BEACH CLEAR     65  60  84 SW23G31   29.68F

$$

GAZ063-065-086>088-099>101-113>116-118-119-134>141-150-190900-
...SOUTHEAST GEORGIA...

CITY           SKY/WX    TMP DP  RH WIND       PRES   REMARKS
SAVANNAH ARPT  CLEAR     63  59  87 SW12G22   29.77F
HUNTER AAF     PTCLDY    64  58  82 SW13      29.76S
FORT STEWART   CLEAR     64  58  83 SW12      29.77F
STATESBORO     LGT RAIN  67  58  74 SW15G21   29.76R
SYLVANIA       CLOUDY    66  62  87 SW6G16    29.75R
CLAXTON        PTSUNNY   67  62  84 S8        29.77S

...CSRA...CENTRAL AND FAR SOUTHEAST GEORGIA...

CITY           SKY/WX    TMP DP  RH WIND       PRES   REMARKS
THOMSON        CLOUDY    58  56  91 N9G20     29.80R
AUGUSTA-BUSH   CLOUDY    62  55  77 W9G21     29.73S
AUGUSTA-DANIEL LGT RAIN  62  54  74 W9        29.74S
SWAINSBORO     CLOUDY    59  59 100 W5        29.79S
VIDALIA        RAIN      64  63  94 NW16G24   29.80R
EASTMAN        CLOUDY    62  53  72 NW5       29.85R
HAZLEHURST     RAIN      67  58  71 SW12      29.78R
ALMA           PTCLDY    66  61  84 SW13      29.80F
WAYCROSS       MOCLDY    65  62  90 SW13      29.81F
JESUP          PTSUNNY   64  61  88 SW7       29.81F
BAXLEY         CLOUDY    63  63 100 SW9       29.78F
BRUNSWICK      CLEAR     64  59  82 SW14G20   29.83S
SAINT SIMONS   CLEAR     64  62  93 SW12      29.82F

$$

SCZ027-028-034-036>038-045-046-048>050-GAZ119-141-190900-
...LAKE AND SUPPLEMENTAL COASTAL OBSERVATIONS...

STATION/POSITION TIME  TEMP    WIND        PRES    WAVE   SWELL
                       AIR SEA DIR/SP/G            HT/PER HT/PER/DIR
                 (UTC) (F)     (DEG/KT/KT) (MB)    (FT/S) (FT/S/D)
WINYAH BAY       0730   65     220/ 17     1006.0F
LAKE MURRAY      0750   65     240/ 15/ 20 1004.1R
ACE BASIN NERRS  0745   64     180/  2     1007.0F
FORT PULASKI     NOT AVBL
SAPELO ISLAND    0800   63     220/ 10     1010.0

$$

ANZ835-935-AMZ111-154-330-350-352-354-370-450-454-472-190900-
...C-MAN AND BUOY OBSERVATIONS...

STATION/POSITION TIME  TEMP    WIND        PRES    WAVE   SWELL
                       AIR SEA DIR/SP/G            HT/PER HT/PER/DIR
                 (UTC) (F)     (DEG/KT/KT) (MB)    (FT/S) (FT/S/D)
BUOY 41004       0810   73 75  220/ 25/ 33 1007.3
BUOY 41008       0750   68 68  190/ 23/ 29 1008.7F   4/ 4   2/100/10
FOLLY BEACH CMAN 0700   65     210/ 21/ 23 1008.2F
CAPERS NEARSHORE 0808   64 63  220/ 21/ 29 1006.4F
FRIPP NEARSHORE  0808   62 62  210/ 19/ 33 1007.5F


STATION/POSITION TIME  TEMP    WIND        PRES    WAVE   SWELL
                       AIR SEA DIR/SP/G            HT/PER HT/PER/DIR
                 (UTC) (F)     (DEG/KT/KT) (MB)    (FT/S) (FT/S/D)
5E ST. MARYS GA  0800      66                N/A     3/ 3
FRYING PAN BUOY  0810   73 72  220/ 27/ 33 1006.0
BUOY 41025       0810   69 65  230/ 19/ 27 1005.4
CAPE LOOKOUT NC  0800          220/ 14/ 17 1005.3F
BUOY 41002       0750   74 77  200/ 19/ 25 1011.6F   4/ 5   2/ 50/ 8
BUOY 41010       NOT AVBL
ST AUGUSTINE FL  0800   62 68  220/  9/ 11 1012.0F


$$




USA.gov is the U.S. government's official web portal to all federal, state and local government web resources and services.